BCS723 EPWA-UGTB

Flight info

Callsign BCS723
Flight time N/A
Altitude 33000
Route XIMBA N195 NATEV DCT KEFIR DCT ROBTU DCT KENIN DCT KARIL DCT UDROS UM859 KARDE UN644 ROLIN DCT TAGAR DCT GIMUR
Aircraft A306/H-SDE3FGHIRWY/LB1

Departure

Time 2026-05-06 16:00
Airport Warsaw Chopin Airport (EPWA)

Arrival

Time N/A
Airport Tbilisi International Airport (UGTB)
Time Latitude Longitude Altitude Speed Heading
2026-05-06 15:50 52.15470 20.98234 355 ft 0 kts 62°
2026-05-06 15:54 52.15468 20.98228 345 ft 3 kts 62°
2026-05-06 15:54 52.15455 20.98189 355 ft 4 kts 62°
2026-05-06 15:54 52.15445 20.98158 355 ft 4 kts 60°
2026-05-06 15:55 52.15429 20.98129 355 ft 4 kts 14°
2026-05-06 15:55 52.15405 20.98132 356 ft 3 kts 333°
2026-05-06 15:55 52.15401 20.98134 356 ft 1 kts 332°
2026-05-06 15:57 52.15410 20.98127 350 ft 5 kts 332°
2026-05-06 15:57 52.15469 20.98076 354 ft 14 kts 332°
2026-05-06 15:57 52.15564 20.98001 349 ft 14 kts 348°
2026-05-06 15:57 52.15648 20.98041 350 ft 12 kts 25°
2026-05-06 15:58 52.15718 20.98093 350 ft 10 kts 25°
2026-05-06 15:58 52.15788 20.98144 353 ft 14 kts 24°
2026-05-06 15:58 52.15900 20.98224 354 ft 21 kts 24°
2026-05-06 15:58 52.16029 20.98320 350 ft 20 kts 24°
2026-05-06 15:59 52.16132 20.98289 346 ft 15 kts 299°
2026-05-06 15:59 52.16211 20.98007 349 ft 55 kts 295°
2026-05-06 15:59 52.16456 20.97136 349 ft 113 kts 294°
2026-05-06 15:59 52.16855 20.95715 351 ft 163 kts 293°
2026-05-06 16:00 52.17373 20.93885 795 ft 183 kts 293°
2026-05-06 16:00 52.17918 20.92020 1734 ft 181 kts 290°
2026-05-06 16:00 52.18251 20.89948 2004 ft 201 kts 264°
2026-05-06 16:00 52.18008 20.87618 2336 ft 219 kts 256°
2026-05-06 16:01 52.17634 20.85102 2642 ft 234 kts 255°
2026-05-06 16:01 52.17071 20.82564 3099 ft 244 kts 240°
2026-05-06 16:01 52.16083 20.80255 3719 ft 251 kts 229°
2026-05-06 16:01 52.14766 20.78403 4513 ft 253 kts 211°
2026-05-06 16:02 52.13089 20.77520 5335 ft 258 kts 186°
2026-05-06 16:02 52.11313 20.78075 6126 ft 269 kts 156°
2026-05-06 16:02 52.09783 20.79896 6911 ft 276 kts 143°
2026-05-06 16:02 52.08341 20.81996 7654 ft 282 kts 142°
2026-05-06 16:03 52.06873 20.84158 8390 ft 287 kts 142°
2026-05-06 16:03 52.05380 20.86339 9150 ft 291 kts 143°
2026-05-06 16:03 52.03858 20.88542 9850 ft 296 kts 143°
2026-05-06 16:03 52.02281 20.90806 10232 ft 311 kts 143°
2026-05-06 16:04 52.00612 20.93191 10513 ft 328 kts 143°
2026-05-06 16:04 51.98861 20.95690 10795 ft 343 kts 143°
2026-05-06 16:04 51.97023 20.98312 11044 ft 358 kts 143°
2026-05-06 16:04 51.95772 21.00095 11207 ft 367 kts 143°
2026-05-06 16:05 51.93825 21.02870 11490 ft 379 kts 143°
2026-05-06 16:05 51.91825 21.05717 11940 ft 385 kts 142°
2026-05-06 16:05 51.89811 21.08585 12507 ft 387 kts 142°
2026-05-06 16:05 51.87782 21.11471 13100 ft 389 kts 142°
2026-05-06 16:06 51.85746 21.14360 13674 ft 390 kts 142°
2026-05-06 16:06 51.83698 21.17262 14151 ft 393 kts 143°
2026-05-06 16:06 51.81622 21.20197 14600 ft 398 kts 143°
2026-05-06 16:06 51.79531 21.23150 15029 ft 402 kts 143°
2026-05-06 16:07 51.77413 21.26137 15451 ft 407 kts 143°
2026-05-06 16:07 51.75277 21.29148 15945 ft 410 kts 143°
2026-05-06 16:07 51.73120 21.32184 16404 ft 413 kts 143°
2026-05-06 16:07 51.70955 21.35226 16745 ft 419 kts 143°
2026-05-06 16:08 51.68744 21.38329 17168 ft 423 kts 143°
2026-05-06 16:08 51.66516 21.41434 17611 ft 425 kts 145°
2026-05-06 16:08 51.64144 21.44264 18052 ft 425 kts 150°
2026-05-06 16:08 51.61652 21.46841 18435 ft 426 kts 153°
2026-05-06 16:09 51.59104 21.49281 18799 ft 427 kts 154°
2026-05-06 16:09 51.56523 21.51679 19177 ft 430 kts 155°
2026-05-06 16:09 51.53931 21.54078 19527 ft 432 kts 155°
2026-05-06 16:09 51.51323 21.56509 19895 ft 434 kts 154°
2026-05-06 16:10 51.48712 21.58966 20257 ft 436 kts 154°
2026-05-06 16:10 51.46089 21.61452 20580 ft 439 kts 153°
2026-05-06 16:10 51.43465 21.63949 21020 ft 438 kts 153°
2026-05-06 16:10 51.40842 21.66451 21408 ft 440 kts 153°
2026-05-06 16:11 51.38205 21.68964 21738 ft 442 kts 153°
2026-05-06 16:11 51.35555 21.71488 22084 ft 444 kts 153°
2026-05-06 16:11 51.32898 21.74017 22413 ft 446 kts 153°
2026-05-06 16:11 51.30224 21.76558 22755 ft 448 kts 153°
2026-05-06 16:12 51.27579 21.79068 23066 ft 450 kts 153°
2026-05-06 16:12 51.24886 21.81620 23374 ft 451 kts 153°
2026-05-06 16:12 51.22177 21.84182 23629 ft 453 kts 153°
2026-05-06 16:12 51.19459 21.86749 23868 ft 455 kts 153°
2026-05-06 16:13 51.16729 21.89318 24075 ft 457 kts 153°
2026-05-06 16:13 51.13977 21.91901 24260 ft 460 kts 153°
2026-05-06 16:13 51.11215 21.94488 24494 ft 462 kts 153°
2026-05-06 16:13 51.08441 21.97080 24739 ft 463 kts 153°
2026-05-06 16:14 51.05651 21.99684 24973 ft 465 kts 153°
2026-05-06 16:14 51.02856 22.02289 25201 ft 466 kts 153°
2026-05-06 16:14 51.00054 22.04896 25418 ft 468 kts 153°
2026-05-06 16:14 50.97242 22.07509 25638 ft 469 kts 153°
2026-05-06 16:15 50.94415 22.10133 25845 ft 471 kts 153°
2026-05-06 16:15 50.91543 22.12613 26044 ft 470 kts 158°
2026-05-06 16:15 50.88515 22.14534 26249 ft 467 kts 166°
2026-05-06 16:15 50.85365 22.15748 26357 ft 467 kts 174°
2026-05-06 16:16 50.82127 22.16162 26426 ft 467 kts 183°
2026-05-06 16:16 50.78892 22.15909 26635 ft 466 kts 187°
2026-05-06 16:16 50.75667 22.15437 26883 ft 465 kts 189°
2026-05-06 16:16 50.72456 22.14869 27175 ft 464 kts 189°
2026-05-06 16:17 50.69255 22.14273 27427 ft 463 kts 190°
2026-05-06 16:17 50.66058 22.13682 27694 ft 463 kts 190°
2026-05-06 16:17 50.62857 22.13109 27966 ft 463 kts 189°
2026-05-06 16:17 50.59657 22.12553 28182 ft 463 kts 189°
2026-05-06 16:18 50.56449 22.12009 28435 ft 463 kts 189°
2026-05-06 16:18 50.53243 22.11474 28706 ft 463 kts 189°
2026-05-06 16:18 50.50038 22.10944 28973 ft 463 kts 189°
2026-05-06 16:18 50.46836 22.10416 29238 ft 462 kts 189°
2026-05-06 16:19 50.43638 22.09889 29499 ft 462 kts 189°
2026-05-06 16:19 50.40437 22.09362 29757 ft 462 kts 189°
2026-05-06 16:19 50.37247 22.08836 30013 ft 461 kts 189°
2026-05-06 16:19 50.34060 22.08312 30322 ft 459 kts 189°
2026-05-06 16:20 50.30893 22.07793 30606 ft 457 kts 189°
2026-05-06 16:20 50.27730 22.07274 30883 ft 456 kts 189°
2026-05-06 16:20 50.24580 22.06757 31149 ft 454 kts 189°
2026-05-06 16:20 50.21442 22.06243 31411 ft 453 kts 189°
2026-05-06 16:21 50.18310 22.05730 31681 ft 452 kts 189°
2026-05-06 16:21 50.15190 22.05219 31940 ft 450 kts 189°
2026-05-06 16:21 50.12067 22.04709 32093 ft 452 kts 189°
2026-05-06 16:21 50.08934 22.04196 32218 ft 454 kts 189°
2026-05-06 16:22 50.05799 22.03685 32475 ft 453 kts 189°
2026-05-06 16:22 50.02674 22.03177 32755 ft 451 kts 189°
2026-05-06 16:22 49.96436 22.02165 32833 ft 450 kts 189°
2026-05-06 16:23 49.90207 22.01156 32839 ft 450 kts 189°
2026-05-06 16:23 49.83988 22.00151 32846 ft 449 kts 189°
2026-05-06 16:24 49.77813 21.99156 32853 ft 449 kts 189°
2026-05-06 16:24 49.71602 21.98159 32850 ft 449 kts 189°
2026-05-06 16:25 49.65383 21.97162 32857 ft 449 kts 189°
2026-05-06 16:25 49.59164 21.96167 32862 ft 450 kts 189°
2026-05-06 16:26 49.52935 21.95174 32861 ft 450 kts 189°
2026-05-06 16:26 49.46709 21.94184 32867 ft 450 kts 189°
2026-05-06 16:27 49.40487 21.93198 32875 ft 450 kts 189°
2026-05-06 16:27 49.34251 21.92171 32872 ft 450 kts 191°
2026-05-06 16:28 49.28061 21.90770 32874 ft 449 kts 193°
2026-05-06 16:28 49.21888 21.89231 32857 ft 449 kts 193°
2026-05-06 16:29 49.15710 21.87717 32874 ft 449 kts 192°
2026-05-06 16:29 49.09536 21.86242 32877 ft 449 kts 192°
2026-05-06 16:30 49.04398 21.85026 32880 ft 449 kts 192°
2026-05-06 16:30 48.97173 21.83324 32879 ft 449 kts 192°
2026-05-06 16:31 48.90978 21.82006 32880 ft 452 kts 187°
2026-05-06 16:31 48.84666 21.82467 32887 ft 457 kts 177°
2026-05-06 16:32 48.78359 21.83734 32886 ft 458 kts 175°
2026-05-06 16:32 48.72044 21.85135 32888 ft 459 kts 175°
2026-05-06 16:33 48.65722 21.86513 32881 ft 459 kts 175°
2026-05-06 16:34 48.56244 21.88520 32890 ft 459 kts 175°
2026-05-06 16:34 48.49954 21.89838 32885 ft 460 kts 175°
2026-05-06 16:35 48.43596 21.91167 32886 ft 462 kts 175°
2026-05-06 16:35 48.37273 21.92934 32890 ft 466 kts 166°
2026-05-06 16:36 48.31351 21.97055 32891 ft 472 kts 153°
2026-05-06 16:36 48.25693 22.02143 32898 ft 478 kts 151°
2026-05-06 16:37 48.19996 22.07445 32904 ft 484 kts 151°
2026-05-06 16:37 48.14267 22.12729 32905 ft 484 kts 152°
2026-05-06 16:38 48.08519 22.17968 32908 ft 484 kts 152°
2026-05-06 16:38 48.02764 22.23180 32901 ft 484 kts 152°
2026-05-06 16:39 47.97005 22.28382 32905 ft 484 kts 152°
2026-05-06 16:39 47.91237 22.33578 32908 ft 485 kts 152°
2026-05-06 16:40 47.85461 22.38770 32910 ft 485 kts 152°
2026-05-06 16:40 47.79856 22.44388 32910 ft 489 kts 141°
2026-05-06 16:41 47.75232 22.51849 32911 ft 492 kts 131°
2026-05-06 16:41 47.70949 22.59810 32912 ft 493 kts 130°
2026-05-06 16:42 47.66715 22.67828 32912 ft 494 kts 130°
2026-05-06 16:42 47.62446 22.75828 32912 ft 494 kts 130°
2026-05-06 16:43 47.58157 22.83786 32912 ft 494 kts 130°
2026-05-06 16:43 47.53859 22.91722 32913 ft 494 kts 130°
2026-05-06 16:44 47.49554 22.99648 32917 ft 494 kts 130°
2026-05-06 16:44 47.45245 23.07560 32920 ft 494 kts 130°
2026-05-06 16:45 47.40930 23.15460 32920 ft 493 kts 130°
2026-05-06 16:45 47.36619 23.23333 32924 ft 493 kts 130°
2026-05-06 16:46 47.32329 23.31143 32916 ft 493 kts 130°
2026-05-06 16:46 47.27998 23.39005 32933 ft 494 kts 130°
2026-05-06 16:47 47.23658 23.46860 32928 ft 495 kts 130°
2026-05-06 16:47 47.19312 23.54703 32927 ft 495 kts 130°
2026-05-06 16:48 47.14962 23.62534 32923 ft 495 kts 130°
2026-05-06 16:48 47.10597 23.70367 32920 ft 495 kts 130°
2026-05-06 16:49 47.06231 23.78178 32919 ft 495 kts 130°
2026-05-06 16:49 47.01859 23.85980 32914 ft 495 kts 130°
2026-05-06 16:50 46.97486 23.93759 32918 ft 495 kts 130°
2026-05-06 16:50 46.93098 24.01545 32916 ft 495 kts 130°
2026-05-06 16:51 46.89453 24.07998 32915 ft 495 kts 130°
2026-05-06 16:51 46.85060 24.15752 32916 ft 495 kts 130°
2026-05-06 16:52 46.80667 24.23485 32917 ft 495 kts 130°
2026-05-06 16:52 46.76264 24.31211 32914 ft 495 kts 130°
2026-05-06 16:53 46.71865 24.38912 32914 ft 494 kts 130°
2026-05-06 16:53 46.67464 24.46594 32917 ft 494 kts 130°
2026-05-06 16:54 46.63054 24.54269 32913 ft 494 kts 131°
2026-05-06 16:54 46.58642 24.61927 32908 ft 494 kts 131°
2026-05-06 16:55 46.54221 24.69579 32918 ft 495 kts 131°
2026-05-06 16:55 46.49791 24.77227 32920 ft 495 kts 131°
2026-05-06 16:56 46.45356 24.84859 32925 ft 495 kts 131°
2026-05-06 16:56 46.40914 24.92484 32936 ft 495 kts 131°
2026-05-06 16:57 46.36467 25.00094 32936 ft 495 kts 131°
2026-05-06 16:57 46.32013 25.07697 32938 ft 495 kts 131°
2026-05-06 16:58 46.27558 25.15281 32946 ft 495 kts 131°
2026-05-06 16:58 46.23098 25.22853 32954 ft 495 kts 130°
2026-05-06 16:59 46.18626 25.30423 32949 ft 496 kts 130°
2026-05-06 16:59 46.14142 25.37994 32958 ft 496 kts 130°
2026-05-06 17:00 46.09651 25.45556 32970 ft 496 kts 130°
2026-05-06 17:00 46.05157 25.53100 32967 ft 496 kts 130°
2026-05-06 17:01 46.00657 25.60636 32979 ft 496 kts 130°
2026-05-06 17:01 45.96157 25.68152 32986 ft 496 kts 130°
2026-05-06 17:02 45.91645 25.75665 32985 ft 496 kts 130°
2026-05-06 17:02 45.87140 25.83145 32989 ft 495 kts 130°
2026-05-06 17:03 45.82634 25.90609 32998 ft 495 kts 130°
2026-05-06 17:03 45.78120 25.98067 33002 ft 495 kts 130°
2026-05-06 17:04 45.73604 26.05506 33010 ft 495 kts 130°
2026-05-06 17:04 45.69080 26.12941 33023 ft 495 kts 130°
2026-05-06 17:05 45.64558 26.20352 33020 ft 495 kts 130°
2026-05-06 17:05 45.60027 26.27757 33039 ft 495 kts 130°
2026-05-06 17:06 45.55501 26.35135 33036 ft 493 kts 130°
2026-05-06 17:06 45.50978 26.42489 33033 ft 493 kts 130°
2026-05-06 17:07 45.46446 26.49835 33030 ft 494 kts 130°
2026-05-06 17:07 45.41892 26.57200 33034 ft 495 kts 130°
2026-05-06 17:08 45.37347 26.64529 33032 ft 493 kts 130°
2026-05-06 17:08 45.32801 26.71842 33022 ft 493 kts 130°
2026-05-06 17:09 45.28253 26.79141 33023 ft 493 kts 130°
2026-05-06 17:09 45.23702 26.86422 33025 ft 492 kts 130°
2026-05-06 17:10 45.19202 26.93603 33026 ft 490 kts 130°
2026-05-06 17:10 45.14666 27.00823 33029 ft 490 kts 130°
2026-05-06 17:11 45.10124 27.08034 33046 ft 491 kts 130°
2026-05-06 17:11 45.05571 27.15244 33031 ft 491 kts 130°
2026-05-06 17:12 45.01015 27.22440 33030 ft 491 kts 130°
2026-05-06 17:12 44.96455 27.29624 33034 ft 491 kts 130°
2026-05-06 17:13 44.91890 27.36798 33034 ft 491 kts 130°
2026-05-06 17:13 44.87319 27.43961 33039 ft 491 kts 130°
2026-05-06 17:14 44.82745 27.51113 33042 ft 491 kts 130°
2026-05-06 17:14 44.78167 27.58250 33054 ft 491 kts 130°
2026-05-06 17:15 44.73584 27.65378 33041 ft 491 kts 130°
2026-05-06 17:15 44.68995 27.72498 33045 ft 491 kts 130°
2026-05-06 17:16 44.64402 27.79606 33050 ft 492 kts 130°
2026-05-06 17:16 44.59799 27.86710 33050 ft 491 kts 130°
2026-05-06 17:17 44.55202 27.93787 33057 ft 490 kts 130°
2026-05-06 17:17 44.50605 28.00846 33063 ft 490 kts 130°
2026-05-06 17:18 44.46008 28.07889 33058 ft 490 kts 130°
2026-05-06 17:18 44.41404 28.14922 33067 ft 489 kts 130°
2026-05-06 17:19 44.36808 28.21927 33064 ft 489 kts 130°
2026-05-06 17:19 44.32199 28.28937 33088 ft 490 kts 130°
2026-05-06 17:20 44.27579 28.35944 33080 ft 490 kts 130°
2026-05-06 17:20 44.22974 28.42909 33072 ft 487 kts 130°
2026-05-06 17:21 44.18376 28.49847 33083 ft 487 kts 130°
2026-05-06 17:21 44.13778 28.56769 33077 ft 487 kts 130°
2026-05-06 17:22 44.09208 28.63632 33091 ft 485 kts 131°
2026-05-06 17:22 44.04635 28.70482 33081 ft 483 kts 130°
2026-05-06 17:23 44.00012 28.77391 33088 ft 486 kts 130°
2026-05-06 17:23 43.95404 28.84262 33113 ft 487 kts 131°
2026-05-06 17:24 43.90801 28.91103 33097 ft 483 kts 131°
2026-05-06 17:24 43.86253 28.97849 33104 ft 482 kts 131°
2026-05-06 17:25 43.81671 29.04631 33104 ft 482 kts 131°
2026-05-06 17:25 43.77090 29.11394 33107 ft 481 kts 131°
2026-05-06 17:26 43.72514 29.18133 33108 ft 480 kts 131°
2026-05-06 17:26 43.67941 29.24851 33105 ft 480 kts 131°
2026-05-06 17:27 43.63352 29.31579 33121 ft 482 kts 131°
2026-05-06 17:27 43.58757 29.38297 33111 ft 481 kts 131°
2026-05-06 17:28 43.54158 29.45005 33110 ft 481 kts 131°
2026-05-06 17:28 43.49560 29.51696 33110 ft 481 kts 131°
2026-05-06 17:29 43.44954 29.58384 33111 ft 481 kts 131°
2026-05-06 17:29 43.40341 29.65065 33109 ft 481 kts 131°
2026-05-06 17:30 43.35726 29.71734 33109 ft 481 kts 131°
2026-05-06 17:30 43.31105 29.78395 33113 ft 482 kts 131°
2026-05-06 17:31 43.26475 29.85054 33113 ft 482 kts 131°
2026-05-06 17:31 43.21840 29.91703 33113 ft 482 kts 131°
2026-05-06 17:32 43.17201 29.98345 33112 ft 482 kts 131°
2026-05-06 17:32 43.12557 30.04977 33112 ft 483 kts 131°
2026-05-06 17:33 43.07903 30.11608 33116 ft 483 kts 131°
2026-05-06 17:33 43.03242 30.18232 33114 ft 483 kts 131°
2026-05-06 17:34 42.99366 30.23729 33125 ft 483 kts 131°
2026-05-06 17:34 42.94693 30.30343 33118 ft 485 kts 131°
2026-05-06 17:35 42.90005 30.36963 33118 ft 485 kts 131°
2026-05-06 17:35 42.85317 30.43568 33113 ft 485 kts 132°
2026-05-06 17:36 42.78281 30.53469 33103 ft 484 kts 130°
2026-05-06 17:36 42.74560 30.60975 33105 ft 476 kts 111°
2026-05-06 17:37 42.73466 30.65200 33109 ft 471 kts 100°
2026-05-06 17:37 42.72827 30.69558 33113 ft 469 kts 96°
2026-05-06 17:37 42.71890 30.78323 33117 ft 468 kts 94°
2026-05-06 17:38 42.71066 30.87061 33114 ft 467 kts 94°
2026-05-06 17:38 42.70205 30.95821 33117 ft 467 kts 94°
2026-05-06 17:39 42.69308 31.04562 33114 ft 467 kts 94°
2026-05-06 17:39 42.68393 31.13289 33119 ft 467 kts 94°
2026-05-06 17:40 42.67471 31.22029 33116 ft 468 kts 94°
2026-05-06 17:40 42.66541 31.30780 33115 ft 468 kts 94°
2026-05-06 17:41 42.65607 31.39512 33121 ft 467 kts 94°
2026-05-06 17:41 42.64669 31.48219 33125 ft 465 kts 94°
2026-05-06 17:42 42.63726 31.56912 33116 ft 465 kts 94°
2026-05-06 17:42 42.62784 31.65536 33116 ft 465 kts 94°
2026-05-06 17:43 42.61828 31.74226 33119 ft 465 kts 94°
2026-05-06 17:43 42.60865 31.82911 33138 ft 465 kts 94°
2026-05-06 17:44 42.59895 31.91601 33119 ft 466 kts 94°
2026-05-06 17:44 42.58917 32.00303 33122 ft 466 kts 94°
2026-05-06 17:45 42.57946 32.09001 33121 ft 466 kts 94°
2026-05-06 17:45 42.56958 32.17699 33121 ft 466 kts 95°
2026-05-06 17:46 42.55958 32.26397 33121 ft 467 kts 95°
2026-05-06 17:46 42.54950 32.35108 33122 ft 468 kts 95°
2026-05-06 17:47 42.53936 32.43819 33127 ft 467 kts 95°
2026-05-06 17:47 42.52918 32.52495 33124 ft 465 kts 95°
2026-05-06 17:48 42.51897 32.61151 33123 ft 466 kts 95°
2026-05-06 17:48 42.50867 32.69827 33128 ft 467 kts 95°
2026-05-06 17:49 42.49829 32.78513 33130 ft 467 kts 95°
2026-05-06 17:49 42.48785 32.87185 33126 ft 467 kts 95°
2026-05-06 17:50 42.47734 32.95859 33124 ft 466 kts 95°
2026-05-06 17:50 42.46677 33.04530 33120 ft 466 kts 95°
2026-05-06 17:51 42.45614 33.13192 33125 ft 466 kts 95°
2026-05-06 17:51 42.44542 33.21855 33131 ft 467 kts 95°
2026-05-06 17:52 42.43463 33.30519 33125 ft 467 kts 96°
2026-05-06 17:52 42.42376 33.39195 33129 ft 468 kts 96°
2026-05-06 17:53 42.41282 33.47874 33128 ft 467 kts 96°
2026-05-06 17:53 42.40185 33.56515 33129 ft 465 kts 96°
2026-05-06 17:54 42.39093 33.65079 33136 ft 465 kts 96°
2026-05-06 17:54 42.37987 33.73702 33133 ft 466 kts 96°
2026-05-06 17:55 42.36873 33.82330 33132 ft 466 kts 96°
2026-05-06 17:55 42.35750 33.90969 33135 ft 466 kts 97°
2026-05-06 17:56 42.34626 33.99592 33153 ft 466 kts 97°
2026-05-06 17:56 42.33495 34.08232 33138 ft 467 kts 97°
2026-05-06 17:57 42.32356 34.16876 33141 ft 467 kts 97°
2026-05-06 17:57 42.31209 34.25522 33133 ft 468 kts 97°
2026-05-06 17:58 42.30056 34.34163 33139 ft 468 kts 97°
2026-05-06 17:58 42.28894 34.42816 33142 ft 468 kts 97°
2026-05-06 17:59 42.27726 34.51457 33143 ft 468 kts 97°
2026-05-06 17:59 42.26551 34.60091 33144 ft 467 kts 97°
2026-05-06 18:00 42.25372 34.68702 33146 ft 467 kts 97°
2026-05-06 18:00 42.24194 34.77269 33147 ft 467 kts 98°
2026-05-06 18:01 42.23000 34.85884 33146 ft 467 kts 98°
2026-05-06 18:01 42.21796 34.94507 33149 ft 468 kts 98°
2026-05-06 18:02 42.20586 35.03124 33148 ft 468 kts 98°
2026-05-06 18:02 42.19370 35.11736 33149 ft 467 kts 99°
2026-05-06 18:03 42.18152 35.20315 33149 ft 466 kts 99°
2026-05-06 18:03 42.16926 35.28899 33152 ft 466 kts 99°
2026-05-06 18:04 42.15695 35.37474 33150 ft 466 kts 99°
2026-05-06 18:04 42.14459 35.46044 33156 ft 465 kts 99°
2026-05-06 18:05 42.13223 35.54574 33150 ft 463 kts 99°
2026-05-06 18:05 42.11986 35.63068 33154 ft 462 kts 99°
2026-05-06 18:06 42.10745 35.71550 33148 ft 462 kts 99°
2026-05-06 18:06 42.09496 35.80038 33152 ft 462 kts 100°
2026-05-06 18:07 42.08242 35.88509 33155 ft 461 kts 100°
2026-05-06 18:07 42.06982 35.96974 33165 ft 461 kts 100°
2026-05-06 18:08 42.05716 36.05440 33158 ft 461 kts 100°
2026-05-06 18:08 42.04444 36.13897 33155 ft 461 kts 100°
2026-05-06 18:09 42.03167 36.22346 33161 ft 461 kts 100°
2026-05-06 18:09 42.01881 36.30802 33152 ft 461 kts 100°
2026-05-06 18:10 42.00590 36.39251 33153 ft 461 kts 101°
2026-05-06 18:10 41.99293 36.47704 33161 ft 461 kts 101°
2026-05-06 18:11 41.98211 36.54714 33155 ft 461 kts 101°
2026-05-06 18:11 41.96683 36.64562 33157 ft 460 kts 101°
2026-05-06 18:12 41.95371 36.72974 33158 ft 460 kts 101°
2026-05-06 18:12 41.94052 36.81388 33163 ft 460 kts 101°
2026-05-06 18:13 41.92729 36.89788 33162 ft 459 kts 101°
2026-05-06 18:13 41.91400 36.98178 33156 ft 459 kts 101°
2026-05-06 18:14 41.90443 37.06574 33164 ft 458 kts 92°
2026-05-06 18:14 41.90203 37.15181 33160 ft 458 kts 91°
2026-05-06 18:15 41.90089 37.23728 33162 ft 458 kts 90°
2026-05-06 18:15 41.89981 37.32281 33156 ft 458 kts 91°
2026-05-06 18:16 41.89853 37.40802 33161 ft 457 kts 91°
2026-05-06 18:16 41.89710 37.49323 33160 ft 456 kts 91°
2026-05-06 18:17 41.89561 37.57782 33160 ft 456 kts 91°
2026-05-06 18:17 41.89404 37.66300 33161 ft 457 kts 91°
2026-05-06 18:18 41.89241 37.74836 33163 ft 457 kts 91°
2026-05-06 18:18 41.89072 37.83375 33162 ft 457 kts 91°
2026-05-06 18:19 41.88897 37.91905 33163 ft 457 kts 91°
2026-05-06 18:19 41.88715 38.00434 33162 ft 457 kts 91°
2026-05-06 18:20 41.88560 38.07515 33163 ft 458 kts 91°
2026-05-06 18:20 41.88366 38.16060 33162 ft 458 kts 91°
2026-05-06 18:21 41.88166 38.24613 33159 ft 458 kts 91°
2026-05-06 18:21 41.87960 38.33170 33160 ft 458 kts 91°
2026-05-06 18:22 41.87747 38.41711 33159 ft 458 kts 92°
2026-05-06 18:22 41.87528 38.50267 33159 ft 459 kts 92°
2026-05-06 18:23 41.87302 38.58846 33160 ft 460 kts 92°
2026-05-06 18:23 41.87070 38.67419 33159 ft 460 kts 92°
2026-05-06 18:24 41.86831 38.75995 33160 ft 460 kts 92°
2026-05-06 18:24 41.86586 38.84570 33160 ft 460 kts 92°
2026-05-06 18:25 41.86335 38.93145 33160 ft 461 kts 92°
2026-05-06 18:25 41.86076 39.01745 33159 ft 461 kts 92°
2026-05-06 18:26 41.85811 39.10346 33162 ft 461 kts 92°
2026-05-06 18:26 41.85539 39.18941 33160 ft 461 kts 92°
2026-05-06 18:27 41.85261 39.27540 33156 ft 461 kts 92°
2026-05-06 18:27 41.84977 39.36144 33160 ft 462 kts 93°
2026-05-06 18:28 41.84685 39.44758 33160 ft 463 kts 93°
2026-05-06 18:28 41.84388 39.53375 33160 ft 462 kts 93°
2026-05-06 18:29 41.84084 39.61992 33163 ft 462 kts 93°
2026-05-06 18:29 41.83774 39.70606 33159 ft 463 kts 93°
2026-05-06 18:30 41.83457 39.79235 33160 ft 464 kts 93°
2026-05-06 18:30 41.83134 39.87875 33160 ft 464 kts 93°
2026-05-06 18:31 41.82803 39.96522 33160 ft 464 kts 94°
2026-05-06 18:31 41.82466 40.05169 33165 ft 464 kts 94°
2026-05-06 18:32 41.82123 40.13818 33161 ft 465 kts 94°
2026-05-06 18:32 41.81770 40.22507 33160 ft 468 kts 94°
2026-05-06 18:33 41.81410 40.31199 33158 ft 468 kts 94°
2026-05-06 18:33 41.81045 40.39858 33169 ft 468 kts 94°
2026-05-06 18:34 41.80671 40.48568 33169 ft 468 kts 94°
2026-05-06 18:34 41.80292 40.57264 33160 ft 468 kts 94°
2026-05-06 18:35 41.80311 40.65978 33166 ft 469 kts 83°
2026-05-06 18:35 41.81733 40.74510 33161 ft 470 kts 76°
2026-05-06 18:36 41.83488 40.82950 33161 ft 469 kts 75°
2026-05-06 18:36 41.85282 40.91351 33164 ft 469 kts 75°
2026-05-06 18:37 41.87051 40.99760 33159 ft 468 kts 75°
2026-05-06 18:37 41.88797 41.08184 33162 ft 468 kts 75°
2026-05-06 18:38 41.90531 41.16613 33154 ft 469 kts 75°
2026-05-06 18:38 41.92267 41.25090 33156 ft 472 kts 76°
2026-05-06 18:39 41.94005 41.33602 33161 ft 473 kts 76°
2026-05-06 18:40 41.96602 41.46383 33146 ft 473 kts 76°
2026-05-06 18:40 41.98324 41.54905 33163 ft 473 kts 76°
2026-05-06 18:41 42.00040 41.63432 33163 ft 473 kts 76°
2026-05-06 18:41 42.01749 41.71961 33145 ft 472 kts 76°
2026-05-06 18:42 42.03452 41.80493 33163 ft 472 kts 76°
2026-05-06 18:42 42.05148 41.89032 33150 ft 473 kts 76°
2026-05-06 18:43 42.06849 41.97629 33154 ft 477 kts 76°
2026-05-06 18:43 42.08553 42.06275 33154 ft 478 kts 76°
2026-05-06 18:44 42.10248 42.14919 33152 ft 478 kts 76°
2026-05-06 18:44 42.11938 42.23569 33155 ft 477 kts 76°
2026-05-06 18:45 42.13617 42.32205 33154 ft 477 kts 76°
2026-05-06 18:45 42.15289 42.40848 33157 ft 477 kts 76°
2026-05-06 18:46 42.16945 42.49440 33158 ft 477 kts 76°
2026-05-06 18:46 42.18604 42.58085 33157 ft 476 kts 77°
2026-05-06 18:47 42.20260 42.66757 33153 ft 479 kts 77°
2026-05-06 18:47 42.21917 42.75471 33151 ft 480 kts 77°
2026-05-06 18:48 42.23568 42.84190 33153 ft 480 kts 77°
2026-05-06 18:48 42.25215 42.92925 33157 ft 480 kts 77°
2026-05-06 18:49 42.26851 43.01670 33155 ft 480 kts 78°
2026-05-06 18:49 42.27245 43.06110 33156 ft 476 kts 92°
2026-05-06 18:49 42.26831 43.10517 33157 ft 472 kts 106°
2026-05-06 18:50 42.24929 43.18986 33148 ft 472 kts 110°
2026-05-06 18:50 42.22883 43.27427 33158 ft 475 kts 110°
2026-05-06 18:51 42.20825 43.35883 33159 ft 475 kts 110°
2026-05-06 18:51 42.18756 43.44361 33159 ft 475 kts 110°
2026-05-06 18:52 42.16684 43.52818 33151 ft 476 kts 111°
2026-05-06 18:52 42.14596 43.61306 33146 ft 478 kts 111°
2026-05-06 18:53 42.12496 43.69817 33153 ft 479 kts 111°
2026-05-06 18:53 42.10386 43.78333 33149 ft 479 kts 111°
2026-05-06 18:54 42.08020 43.86673 33143 ft 474 kts 124°
2026-05-06 18:54 42.06064 43.90112 33144 ft 466 kts 140°
2026-05-06 18:54 42.03500 43.92672 33143 ft 456 kts 156°
2026-05-06 18:54 42.00517 43.94158 33143 ft 448 kts 172°
2026-05-06 18:55 41.97482 43.94495 33144 ft 442 kts 186°
2026-05-06 18:55 41.94442 43.93733 33146 ft 438 kts 200°
2026-05-06 18:55 41.91580 43.92355 33144 ft 437 kts 203°